NKS5510 KFLL-KMCO

Flight info

Callsign NKS5510
Flight time N/A
Altitude 20000
Route FRSBE2 WAPOM MUNGI1
Aircraft A320/M-SDE3FGHIRWY/LB1

Departure

Time 2026-05-06 22:27
Airport Fort Lauderdale Hollywood International Airport (KFLL)

Arrival

Time N/A
Airport Orlando International Airport (KMCO)
Time Latitude Longitude Altitude Speed Heading
2026-05-06 22:08 26.07320 -80.14564 23 ft 0 kts 240°
2026-05-06 22:16 26.07324 -80.14556 23 ft 3 kts 245°
2026-05-06 22:17 26.07330 -80.14535 24 ft 3 kts 268°
2026-05-06 22:17 26.07328 -80.14514 23 ft 3 kts 296°
2026-05-06 22:17 26.07318 -80.14498 25 ft 3 kts 331°
2026-05-06 22:17 26.07306 -80.14493 23 ft 1 kts
2026-05-06 22:18 26.07305 -80.14493 23 ft 1 kts
2026-05-06 22:19 26.07310 -80.14492 24 ft 1 kts
2026-05-06 22:19 26.07326 -80.14493 25 ft 3 kts 358°
2026-05-06 22:20 26.07352 -80.14494 23 ft 5 kts 359°
2026-05-06 22:20 26.07374 -80.14495 24 ft 0 kts 354°
2026-05-06 22:23 26.07394 -80.14496 24 ft 6 kts 359°
2026-05-06 22:23 26.07465 -80.14508 25 ft 13 kts 325°
2026-05-06 22:23 26.07483 -80.14618 26 ft 17 kts 259°
2026-05-06 22:24 26.07486 -80.14716 24 ft 22 kts 272°
2026-05-06 22:24 26.07486 -80.14915 20 ft 29 kts 268°
2026-05-06 22:24 26.07485 -80.15242 17 ft 35 kts 270°
2026-05-06 22:24 26.07482 -80.15430 17 ft 37 kts 268°
2026-05-06 22:25 26.07477 -80.15721 20 ft 39 kts 270°
2026-05-06 22:25 26.07489 -80.16019 25 ft 40 kts 270°
2026-05-06 22:25 26.07494 -80.16332 24 ft 41 kts 270°
2026-05-06 22:25 26.07498 -80.16627 23 ft 17 kts 283°
2026-05-06 22:26 26.07528 -80.16641 23 ft 7 kts 350°
2026-05-06 22:26 26.07613 -80.16646 22 ft 17 kts 360°
2026-05-06 22:26 26.07700 -80.16558 23 ft 21 kts 74°
2026-05-06 22:26 26.07695 -80.16341 27 ft 48 kts 91°
2026-05-06 22:27 26.07688 -80.15699 19 ft 114 kts 90°
2026-05-06 22:27 26.07681 -80.14656 144 ft 148 kts 92°
2026-05-06 22:27 26.07678 -80.13512 768 ft 149 kts 92°
2026-05-06 22:27 26.07689 -80.12363 1407 ft 148 kts 88°
2026-05-06 22:28 26.07704 -80.11212 1993 ft 150 kts 90°
2026-05-06 22:28 26.07686 -80.10036 2534 ft 154 kts 91°
2026-05-06 22:28 26.07810 -80.08818 2954 ft 166 kts 67°
2026-05-06 22:28 26.08428 -80.07667 3331 ft 181 kts 45°
2026-05-06 22:29 26.09533 -80.06959 3712 ft 195 kts 14°
2026-05-06 22:29 26.10892 -80.06521 4085 ft 212 kts 18°
2026-05-06 22:29 26.12335 -80.05941 4463 ft 228 kts 19°
2026-05-06 22:29 26.13901 -80.05329 4824 ft 250 kts 13°
2026-05-06 22:30 26.15701 -80.05072 5212 ft 270 kts 358°
2026-05-06 22:30 26.17571 -80.05394 5573 ft 274 kts 341°
2026-05-06 22:30 26.19358 -80.06083 5936 ft 276 kts 340°
2026-05-06 22:30 26.21082 -80.07032 6309 ft 277 kts 324°
2026-05-06 22:31 26.22506 -80.08494 6674 ft 279 kts 309°
2026-05-06 22:31 26.23497 -80.10355 7030 ft 281 kts 293°
2026-05-06 22:31 26.24203 -80.12364 7371 ft 283 kts 292°
2026-05-06 22:31 26.24925 -80.14410 7738 ft 284 kts 292°
2026-05-06 22:32 26.25756 -80.16419 8088 ft 285 kts 303°
2026-05-06 22:32 26.26817 -80.18285 8447 ft 285 kts 304°
2026-05-06 22:32 26.27882 -80.20155 8803 ft 285 kts 305°
2026-05-06 22:32 26.28950 -80.22031 9183 ft 287 kts 305°
2026-05-06 22:33 26.30027 -80.23921 9556 ft 290 kts 304°
2026-05-06 22:33 26.31100 -80.25807 9932 ft 292 kts 305°
2026-05-06 22:33 26.32211 -80.27762 10284 ft 307 kts 305°
2026-05-06 22:33 26.33393 -80.29837 10640 ft 325 kts 304°
2026-05-06 22:34 26.34637 -80.32029 10996 ft 341 kts 304°
2026-05-06 22:34 26.35921 -80.34293 11351 ft 348 kts 304°
2026-05-06 22:34 26.37219 -80.36590 11708 ft 351 kts 305°
2026-05-06 22:34 26.38696 -80.38704 12061 ft 349 kts 320°
2026-05-06 22:35 26.40694 -80.40199 12424 ft 346 kts 337°
2026-05-06 22:35 26.42902 -80.41294 12795 ft 347 kts 338°
2026-05-06 22:35 26.45121 -80.42380 13168 ft 348 kts 338°
2026-05-06 22:35 26.47291 -80.43444 13540 ft 327 kts 338°
2026-05-06 22:36 26.49288 -80.44431 13891 ft 299 kts 339°
2026-05-06 22:36 26.51107 -80.45336 14225 ft 272 kts 338°
2026-05-06 22:36 26.52752 -80.46154 14554 ft 248 kts 339°
2026-05-06 22:36 26.54300 -80.46917 14885 ft 246 kts 339°
2026-05-06 22:37 26.55869 -80.47686 15242 ft 247 kts 338°
2026-05-06 22:37 26.57448 -80.48458 15591 ft 248 kts 338°
2026-05-06 22:37 26.59038 -80.49239 15947 ft 249 kts 337°
2026-05-06 22:37 26.60630 -80.50026 16300 ft 250 kts 337°
2026-05-06 22:38 26.62231 -80.50819 16678 ft 252 kts 336°
2026-05-06 22:38 26.63816 -80.51604 17044 ft 253 kts 336°
2026-05-06 22:38 26.65433 -80.52400 17419 ft 254 kts 336°
2026-05-06 22:38 26.67056 -80.53201 17809 ft 256 kts 336°
2026-05-06 22:39 26.68691 -80.54012 18187 ft 257 kts 335°
2026-05-06 22:39 26.70341 -80.54833 18541 ft 260 kts 335°
2026-05-06 22:39 26.72047 -80.55681 18891 ft 279 kts 335°
2026-05-06 22:39 26.73866 -80.56582 19228 ft 299 kts 335°
2026-05-06 22:40 26.75832 -80.57554 19579 ft 318 kts 335°
2026-05-06 22:40 26.77922 -80.58589 19925 ft 337 kts 335°
2026-05-06 22:40 26.80130 -80.59684 20040 ft 362 kts 335°
2026-05-06 22:40 26.82519 -80.60868 20065 ft 389 kts 335°
2026-05-06 22:41 26.87783 -80.63476 20060 ft 435 kts 335°
2026-05-06 22:41 26.90499 -80.64820 20051 ft 414 kts 335°
2026-05-06 22:41 26.93065 -80.66085 20063 ft 392 kts 335°
2026-05-06 22:42 26.95505 -80.67290 20061 ft 373 kts 334°
2026-05-06 22:42 26.97825 -80.68442 20062 ft 355 kts 334°
2026-05-06 22:42 27.00031 -80.69540 20061 ft 339 kts 334°
2026-05-06 22:42 27.02115 -80.70578 20060 ft 323 kts 334°
2026-05-06 22:43 27.04123 -80.71578 20062 ft 309 kts 334°
2026-05-06 22:43 27.06046 -80.72538 20060 ft 296 kts 334°
2026-05-06 22:43 27.07885 -80.73459 20059 ft 283 kts 334°
2026-05-06 22:43 27.09647 -80.74340 20057 ft 271 kts 334°
2026-05-06 22:44 27.11326 -80.75178 20055 ft 263 kts 334°
2026-05-06 22:44 27.12990 -80.76009 20056 ft 261 kts 334°
2026-05-06 22:44 27.14652 -80.76835 20055 ft 261 kts 334°
2026-05-06 22:44 27.16309 -80.77659 20055 ft 261 kts 334°
2026-05-06 22:45 27.17971 -80.78489 20059 ft 260 kts 333°
2026-05-06 22:45 27.19627 -80.79320 20055 ft 260 kts 333°
2026-05-06 22:45 27.21257 -80.80137 20054 ft 260 kts 333°
2026-05-06 22:45 27.22910 -80.80964 20054 ft 260 kts 333°
2026-05-06 22:46 27.24559 -80.81788 20055 ft 260 kts 333°
2026-05-06 22:46 27.26211 -80.82615 20054 ft 260 kts 333°
2026-05-06 22:46 27.27934 -80.83479 20061 ft 286 kts 334°
2026-05-06 22:46 27.29861 -80.84448 20059 ft 319 kts 334°
2026-05-06 22:47 27.31992 -80.85476 20054 ft 345 kts 338°
2026-05-06 22:47 27.34268 -80.86235 19973 ft 335 kts 343°
2026-05-06 22:47 27.36477 -80.86878 19778 ft 326 kts 343°
2026-05-06 22:47 27.38641 -80.87511 19704 ft 314 kts 343°
2026-05-06 22:48 27.40719 -80.88123 19635 ft 302 kts 342°
2026-05-06 22:48 27.42718 -80.88718 19587 ft 292 kts 342°
2026-05-06 22:48 27.44625 -80.89286 19530 ft 282 kts 342°
2026-05-06 22:48 27.46492 -80.89840 19475 ft 272 kts 342°
2026-05-06 22:49 27.48297 -80.90377 19419 ft 264 kts 342°
2026-05-06 22:49 27.50062 -80.90903 19360 ft 261 kts 342°
2026-05-06 22:49 27.51827 -80.91432 19299 ft 262 kts 342°
2026-05-06 22:49 27.53571 -80.91953 19244 ft 263 kts 342°
2026-05-06 22:50 27.55342 -80.92483 19194 ft 263 kts 342°
2026-05-06 22:50 27.57115 -80.93010 19145 ft 263 kts 342°
2026-05-06 22:50 27.58885 -80.93536 19088 ft 263 kts 342°
2026-05-06 22:50 27.60657 -80.94065 19036 ft 263 kts 342°
2026-05-06 22:51 27.62402 -80.94590 18986 ft 263 kts 342°
2026-05-06 22:51 27.64169 -80.95121 18933 ft 262 kts 342°
2026-05-06 22:51 27.65931 -80.95649 18879 ft 262 kts 342°
2026-05-06 22:51 27.67742 -80.96195 18839 ft 284 kts 342°
2026-05-06 22:52 27.69774 -80.96810 18783 ft 321 kts 343°
2026-05-06 22:52 27.72050 -80.97497 18720 ft 354 kts 343°
2026-05-06 22:52 27.74548 -80.98246 18643 ft 386 kts 343°
2026-05-06 22:52 27.77216 -80.99038 18580 ft 415 kts 343°
2026-05-06 22:53 27.80106 -80.99899 18493 ft 440 kts 343°
2026-05-06 22:53 27.83019 -81.00764 18396 ft 421 kts 343°
2026-05-06 22:53 27.85784 -81.01583 18309 ft 401 kts 343°
2026-05-06 22:53 27.88424 -81.02367 18213 ft 384 kts 343°
2026-05-06 22:54 27.90984 -81.03133 17766 ft 377 kts 343°
2026-05-06 22:54 27.93503 -81.03914 17220 ft 372 kts 341°
2026-05-06 22:54 27.95889 -81.04911 16680 ft 368 kts 338°
2026-05-06 22:54 27.98287 -81.05929 16135 ft 365 kts 339°
2026-05-06 22:55 28.00659 -81.06934 15590 ft 362 kts 339°
2026-05-06 22:55 28.03010 -81.07932 15058 ft 360 kts 339°
2026-05-06 22:55 28.05348 -81.08925 14517 ft 358 kts 339°
2026-05-06 22:55 28.07678 -81.09916 13977 ft 356 kts 340°
2026-05-06 22:56 28.09996 -81.10906 13401 ft 354 kts 339°
2026-05-06 22:56 28.12260 -81.11891 12867 ft 351 kts 339°
2026-05-06 22:56 28.14529 -81.12889 12329 ft 348 kts 339°
2026-05-06 22:56 28.16777 -81.13884 11813 ft 345 kts 339°
2026-05-06 22:57 28.18979 -81.14865 11507 ft 337 kts 339°
2026-05-06 22:57 28.21113 -81.15815 11422 ft 323 kts 339°
2026-05-06 22:57 28.23167 -81.16723 11295 ft 311 kts 339°
2026-05-06 22:57 28.25150 -81.17598 11161 ft 301 kts 339°
2026-05-06 22:58 28.27105 -81.18345 11028 ft 292 kts 348°
2026-05-06 22:58 28.29111 -81.18585 10548 ft 291 kts 359°
2026-05-06 22:58 28.31145 -81.18618 9854 ft 293 kts 359°
2026-05-06 22:58 28.33185 -81.18646 9188 ft 292 kts 359°
2026-05-06 22:59 28.35181 -81.18677 8909 ft 276 kts 359°
2026-05-06 22:59 28.37034 -81.18708 8845 ft 255 kts 359°
2026-05-06 22:59 28.38744 -81.18739 8786 ft 244 kts 359°
2026-05-06 22:59 28.40418 -81.18767 8575 ft 240 kts 359°
2026-05-06 23:00 28.42083 -81.18792 8254 ft 240 kts 359°
2026-05-06 23:00 28.43762 -81.18829 7954 ft 241 kts 359°
2026-05-06 23:00 28.45439 -81.18842 7653 ft 241 kts 359°
2026-05-06 23:00 28.47135 -81.18845 7174 ft 249 kts 359°
2026-05-06 23:01 28.48898 -81.18852 6577 ft 263 kts 357°
2026-05-06 23:01 28.50685 -81.19354 5931 ft 267 kts 331°
2026-05-06 23:01 28.52098 -81.20698 5289 ft 267 kts 305°
2026-05-06 23:01 28.53169 -81.22425 4656 ft 267 kts 303°
2026-05-06 23:02 28.54207 -81.24160 4020 ft 268 kts 299°
2026-05-06 23:02 28.54725 -81.26152 3388 ft 265 kts 265°
2026-05-06 23:02 28.54110 -81.28035 3049 ft 248 kts 227°
2026-05-06 23:02 28.52712 -81.28993 2826 ft 230 kts 188°
2026-05-06 23:03 28.51204 -81.28733 2607 ft 216 kts 156°
2026-05-06 23:03 28.49835 -81.28213 2381 ft 204 kts 178°
2026-05-06 23:03 28.48449 -81.28294 2170 ft 197 kts 181°
2026-05-06 23:03 28.47092 -81.28294 1959 ft 193 kts 173°
2026-05-06 23:04 28.45867 -81.27773 1761 ft 186 kts 148°
2026-05-06 23:04 28.44814 -81.26988 1554 ft 178 kts 145°
2026-05-06 23:04 28.43834 -81.26203 1330 ft 173 kts 144°
2026-05-06 23:04 28.42868 -81.25412 1116 ft 169 kts 140°
2026-05-06 23:05 28.42208 -81.24376 1103 ft 158 kts 108°
2026-05-06 23:05 28.42163 -81.23072 1329 ft 181 kts 73°
2026-05-06 23:05 28.42931 -81.21850 1689 ft 207 kts 32°
2026-05-06 23:05 28.44362 -81.21536 2282 ft 220 kts 348°
2026-05-06 23:06 28.45823 -81.22141 2832 ft 226 kts 335°
2026-05-06 23:06 28.47230 -81.22913 2969 ft 223 kts 332°
2026-05-06 23:06 28.48612 -81.23722 3005 ft 223 kts 332°
2026-05-06 23:06 28.49988 -81.24539 3012 ft 223 kts 328°
2026-05-06 23:07 28.50997 -81.25778 2994 ft 208 kts 285°
2026-05-06 23:07 28.50969 -81.27261 2917 ft 179 kts 239°
2026-05-06 23:07 28.50093 -81.28021 2775 ft 152 kts 189°
2026-05-06 23:07 28.49066 -81.28146 2344 ft 152 kts 184°
2026-05-06 23:08 28.48005 -81.28281 1770 ft 154 kts 182°
2026-05-06 23:08 28.46918 -81.28265 1082 ft 161 kts 177°
2026-05-06 23:08 28.46211 -81.27540 1065 ft 151 kts 87°
2026-05-06 23:08 28.46728 -81.26492 1306 ft 155 kts 38°
2026-05-06 23:09 28.47747 -81.26657 1266 ft 178 kts 301°
2026-05-06 23:09 28.47641 -81.27963 1222 ft 180 kts 227°
2026-05-06 23:09 28.46556 -81.28444 769 ft 175 kts 172°
2026-05-06 23:09 28.45397 -81.28227 384 ft 158 kts 188°
2026-05-06 23:10 28.44350 -81.28260 123 ft 141 kts 174°
2026-05-06 23:10 28.43555 -81.28251 102 ft 58 kts 181°